Simultaneous Nadir Overpasses (SNOs) Predictions

Prediction of SNOs between FY3D and METOP-C Satellite Orbit:

Table of predicted SNOs for the next 14.0 days since TLE Epoch: 8/31/2024
Index Date (FY3D) Time (FY3D) Lat,Lon (FY3D) SZA (FY3D ) Date (METOP-C) Time (METOP-C) Lat,Lon (METOP-C) SZA (METOP-C ) Distance(km) Time Diff (sec)
1 09/06/2024 15:14:41 -76.63, 129.86 109.54 09/06/2024 15:15:46 -76.58, 133.50 109.58 94.14 65
2 09/06/2024 16:05:22 76.41, -61.97 70.25 09/06/2024 16:06:31 76.38, -59.91 70.23 54.04 69
3 09/06/2024 16:56:03 -76.26, 105.91 109.89 09/06/2024 16:57:15 -76.25, 106.96 109.89 27.78 72
4 09/06/2024 17:46:46 76.12, -86.28 69.99 09/06/2024 17:47:59 76.09, -86.27 69.96 3.70 73
5 09/06/2024 18:37:30 -76.11, 81.10 110.02 09/06/2024 18:38:40 -76.10, 81.09 110.02 0.94 70
6 09/06/2024 19:28:16 76.10,-111.58 70.00 09/06/2024 19:29:20 76.12,-111.50 70.02 3.08 64
7 09/06/2024 20:19:00 -76.08, 55.80 110.01 09/06/2024 20:20:02 -76.08, 55.70 110.01 2.43 62
8 09/06/2024 21:09:46 76.08,-136.88 70.00 09/06/2024 21:10:42 76.11,-136.88 70.03 2.90 56
9 09/06/2024 22:00:31 -76.11, 30.33 109.96 09/06/2024 22:01:23 -76.11, 30.47 109.95 3.83 52
10 09/06/2024 22:51:17 76.10,-162.34 70.05 09/06/2024 22:52:04 76.09,-162.27 70.04 2.33 47
11 09/06/2024 23:42:01 -76.09, 5.03 109.95 09/06/2024 23:42:45 -76.10, 5.09 109.94 2.03 44
12 09/07/2024 00:32:47 76.08, 172.36 70.06 09/07/2024 00:33:26 76.08, 172.34 70.06 0.79 39
13 09/07/2024 01:23:31 -76.07, -20.27 109.95 09/07/2024 01:24:07 -76.09, -20.30 109.93 2.33 36
14 09/07/2024 02:14:17 76.06, 147.05 70.07 09/07/2024 02:14:48 76.06, 146.95 70.07 2.76 31
15 09/07/2024 03:05:02 -76.09, -45.73 109.90 09/07/2024 03:05:29 -76.07, -45.69 109.92 2.38 27
16 09/07/2024 03:55:48 76.09, 121.59 70.12 09/07/2024 03:56:09 76.10, 121.72 70.13 3.58 21
17 09/07/2024 04:46:32 -76.07, -71.03 109.89 09/07/2024 04:46:51 -76.06, -71.08 109.90 1.79 19
18 09/07/2024 05:37:18 76.07, 96.29 70.12 09/07/2024 05:37:31 76.08, 96.33 70.14 1.99 13
19 09/07/2024 06:28:02 -76.05, -96.34 109.89 09/07/2024 06:28:13 -76.05, -96.47 109.89 3.54 11
20 09/07/2024 07:18:48 76.05, 70.99 70.13 09/07/2024 07:18:53 76.07, 70.94 70.15 2.61 5
21 09/07/2024 08:09:33 -76.07,-121.80 109.83 09/07/2024 08:09:34 -76.08,-121.70 109.83 2.71 1
22 09/07/2024 09:00:19 76.07, 45.52 70.18 09/07/2024 09:00:15 76.05, 45.56 70.16 2.14 4
23 09/07/2024 09:51:03 -76.05,-147.10 109.83 09/07/2024 09:50:56 -76.06,-147.09 109.82 1.03 7
24 09/07/2024 10:41:49 76.05, 20.22 70.19 09/07/2024 10:41:37 76.04, 20.17 70.17 1.92 12
25 09/07/2024 11:32:33 -76.03,-172.40 109.82 09/07/2024 11:32:18 -76.05,-172.47 109.81 2.55 15
26 09/07/2024 12:23:19 76.03, -5.08 70.19 09/07/2024 12:22:59 76.03, -5.22 70.19 3.81 20
27 09/07/2024 13:14:04 -76.06, 162.14 109.77 09/07/2024 13:13:40 -76.03, 162.14 109.80 2.60 24
28 09/07/2024 14:04:50 76.06, -30.54 70.24 09/07/2024 14:04:20 76.06, -30.45 70.25 2.46 30
29 09/07/2024 14:55:34 -76.04, 136.83 109.77 09/07/2024 14:55:02 -76.02, 136.75 109.78 2.91 32
30 09/07/2024 15:46:20 76.03, -55.85 70.25 09/07/2024 15:45:42 76.04, -55.84 70.26 0.98 38
31 09/07/2024 16:37:04 -76.02, 111.53 109.76 09/07/2024 16:36:23 -76.05, 111.52 109.72 3.97 41
32 09/07/2024 17:27:50 76.01, -81.15 70.26 09/07/2024 17:27:04 76.03, -81.23 70.27 2.74 46
33 09/07/2024 18:18:35 -76.04, 86.07 109.71 09/07/2024 18:17:45 -76.04, 86.13 109.71 1.68 50
34 09/07/2024 19:09:21 76.04,-106.61 70.31 09/07/2024 19:08:26 76.01,-106.62 70.28 2.66 55
35 09/07/2024 20:00:05 -76.02, 60.77 109.70 09/07/2024 19:59:07 -76.02, 60.74 109.70 0.75 58
36 09/07/2024 20:50:51 76.02,-131.91 70.31 09/07/2024 20:49:48 76.00,-132.01 70.29 3.15 63
37 09/07/2024 21:41:35 -76.00, 35.46 109.70 09/07/2024 21:40:29 -76.01, 35.35 109.69 3.14 66
38 09/07/2024 22:32:21 76.00,-157.22 70.32 09/07/2024 22:31:09 76.03,-157.24 70.35 3.91 72
39 09/07/2024 23:23:06 -76.02, 10.00 109.65 09/07/2024 23:21:51 -76.00, 9.97 109.68 3.35 75
40 09/08/2024 00:13:47 75.79, 178.11 70.15 09/08/2024 00:12:36 75.79, 176.60 70.13 41.07 71
41 09/08/2024 01:04:28 -75.64, -14.06 109.99 09/08/2024 01:03:20 -75.66, -16.48 109.99 66.81 68



Historial Predications of SNOs between FY3D and METOP-C
